Regional Weather Roundup
Issued by NWS

Home | Current Version | Previous Version | Text Only | Print | Product List | Glossary On
Versions: 1 2 3 4 5 6 7 8 9 10 11 12 13 14 15 16 17 18 19 20 21 22 23 24 25 26 27 28 29 30 31 32 33 34 35 36 37 38 39 40 41 42 43 44 45 46 47 48 49 50
000
ASUS43 KMKX 170511
RWRWI

WISCONSIN REGIONAL WEATHER ROUNDUP
NATIONAL WEATHER SERVICE MILWAUKEE/SULLIVAN WI
1200 AM CDT THU AUG 17 2017

NOTE: "FAIR" INDICATES FEW OR NO CLOUDS BELOW 12,000 FEET WITH NO
SIGNIFICANT WEATHER AND/OR OBSTRUCTIONS TO VISIBILITY.

WIZ001-002-006>008-014>016-023>028-170600-
NORTHWEST WISCONSIN

CITY           SKY/WX    TMP DP  RH WIND       PRES   REMARKS
SUPERIOR ARPT  LGT RAIN  62  61  97 NE13G18   29.76F
ASHLAND        CLOUDY    66  61  84 NE8       29.77F
HAYWARD        LGT RAIN  66  62  87 E9        29.74F FOG
SIREN          LGT RAIN  66  65  95 E3        29.69F
CUMBERLAND     LGT RAIN  64  63  94 SE13G24   29.67F
RICE LAKE      HVY RAIN  66  65  95 E13G28    29.69F VSB 1
CHETEK         LGT RAIN  67  66  99 MISG      29.67F
LADYSMITH      RAIN      66  65  96 E16       29.75F
EAU CLAIRE     RAIN      70  68  93 SE8       29.64R FOG
MENOMONIE      CLOUDY    68  68  99 E6        29.64F
NEW RICHMOND   CLOUDY    68  67  97 E12G18    29.61F
OSCEOLA        CLOUDY    69  69 100 E8        29.64F
$$

WIZ003>005-009-010-017-018-170600-
NORTH CENTRAL WISCONSIN

CITY           SKY/WX    TMP DP  RH WIND       PRES   REMARKS
MANITOWISH WTR CLOUDY    65  60  84 E8        29.82F
ARBOR VITAE    CLOUDY    65  59  79 SE9       29.82F
WOODRUFF       CLOUDY    65  59  79 SE9       29.82F
RHINELANDER    CLOUDY    64  60  87 E8        29.84F
EAGLE RIVER    CLOUDY    63  56  78 E9        29.84F
LAND O LAKES   CLOUDY    64  56  76 SE6       29.87F
PHILLIPS       LGT RAIN  64  62  94 E7        29.77F
TOMAHAWK       LGT RAIN  64  59  82 E3        29.81F
MEDFORD        RAIN      63  62  94 E12G18    29.75F
MERRILL        DRIZZLE   66  61  82 E8        29.81F
$$

WIZ029-030-035-036-043>047-170600-
CENTRAL WISCONSIN

CITY           SKY/WX    TMP DP  RH WIND       PRES   REMARKS
WAUSAU         LGT RAIN  65  61  87 E9        29.77F
MOSINEE        CLOUDY    63  63 100 E12       29.79F
MARSHFIELD     LGT RAIN  66  62  87 E13G20    29.74F
STEVENS POINT  RAIN      63  63 100 E12       29.78F
WAUPACA        LGT RAIN  67  65  96 E9        29.78F
WAUTOMA        CLOUDY    66  66 100 E5        29.77F
WISC RAPIDS    CLOUDY    65  64  97 E13       29.76F
CAMP DOUGLAS   DRIZZLE   70  70 100 E12       29.71F
$$

WIZ011>013-019>022-031-037>040-048>050-170600-
NORTHEAST WISCONSIN

CITY           SKY/WX    TMP DP  RH WIND       PRES   REMARKS
ANTIGO         CLOUDY    63  60  90 E10       29.83F
SHAWANO        CLOUDY    68  63  85 E6        29.80F
OCONTO         CLOUDY    69  63  81 E7        29.81F
STURGEON BAY   CLOUDY    69  64  84 E8        29.84F
GREEN BAY      CLOUDY    67  66  97 E6        29.81F
MANITOWOC      HVY RAIN  69  66  90 E12       29.83F FOG
APPLETON       LGT RAIN  64  64 100 E8        29.79F
CLINTONVILLE   LGT RAIN  64  63  94 E6        29.81F
OSHKOSH        LGT RAIN  69  67  93 SE12      29.77F
$$

WIZ032>034-041-042-053>061-170600-
SOUTHWEST WISCONSIN

CITY           SKY/WX    TMP DP  RH WIND       PRES   REMARKS
LA CROSSE      CLOUDY    77  73  87 S6        29.64F
SPARTA         MOCLDY    69  68  97 SE9       29.69F
VIROQUA        CLOUDY    73  73 100 S10       29.71F
BOSCOBEL       CLOUDY    77  72  84 S7        29.70F
PRAIRIE DU CHI CLOUDY    75  71  86 SE6       29.69S
PLATTEVILLE    MOCLDY    74  74 100 S15       29.75S
$$

WIZ056-057-062-063-064-067-068-170600-
SOUTH CENTRAL WISCONSIN

CITY           SKY/WX    TMP DP  RH WIND       PRES   REMARKS
REEDSBURG      CLOUDY    71  71 100 SE3       29.73F
BARABOO/DELLS  CLOUDY    71  69  94 SE7       29.74F
LONE ROCK      CLOUDY    73  73 100 E6        29.72F
MINERAL POINT  CLOUDY    73  73 100 S7        29.75F FOG
MADISON        CLOUDY    73  72  96 S7        29.76F
MIDDLETON      CLOUDY    74  74 100 S6        29.76F
WATERTOWN      CLOUDY    72  72 100 SE9       29.78S
MONROE         MOCLDY    72  72 100 S10       29.77F
JANESVILLE     MOCLDY    73  73 100 S7        29.77F
$$

WIZ051-052-058>065-066-070>072-170600-
SOUTHEAST WISCONSIN

CITY           SKY/WX    TMP DP  RH WIND       PRES   REMARKS
MILWAUKEE      CLOUDY    74  72  93 SE6       29.80F
WAUKESHA       RAIN      70  68  94 SE5       29.82S
MILWAUKEE/TIMM CLOUDY    70  66  88 SE5       29.81F
RACINE         CLOUDY    75  73  93 S9        29.83F
KENOSHA        HVY RAIN  74  72  93 S15G22    29.82F FOG
FOND DU LAC    LGT RAIN  70  66  87 SE13      29.78F
SHEBOYGAN      LGT RAIN  69  69 100 E3        29.81F FOG
WEST BEND      LGT RAIN  68  68 100 E3        29.81F
JUNEAU         LGT RAIN  70  69  97 SE12      29.79F
$$

LSZ147-162-170600-
LAKE SUPERIOR

STATION/POSITION TIME  TEMP    WIND        PRES    WAVE
                       AIR SEA DIR/SP/G            HT/PER
                 (UTC) (F)     (DEG/KT/KT) (MB)    (FT/S)
W MID LAKE BUOY  0450   62 60   80/ 14/ 17 1010.2F   3/ 4
DEVILS ISLAND    0500   63      70/ 18/ 21 1009.0F
PORT WING        0340   61      50/ 10/ 12 1009.5
SAXON HARBOR     0430   67      50/  1/  3 1008.1F
$$

LMZ867-665-643>646-170600-
LAKE MICHIGAN

STATION/POSITION TIME  TEMP    WIND        PRES    WAVE
                       AIR SEA DIR/SP/G            HT/PER
                 (UTC) (F)     (DEG/KT/KT) (MB)    (FT/S)
S GREEN BAY BUOY 0430   69 72  100/ 12/ 16 1010.0F
N MID LAKE BUOY  0450   69 68  120/ 10/ 12 1011.7F   1/ 3
NORTHPORT PIER   0440   69     110/  8/ 10 1011.2F
KEWAUNEE LAKESHO 0442   70      40/  3/  5 1009.4F
SHEBOYGAN LAKESH 0500   70     120/  9/ 10 1009.3F
PORT WASHINGTON  0440   72     100/  4/  8 1010.5F
ATWATER BUOY     0439   72 72  120/ 10/ 12 1009.4F
MILWAUKEE LAKESH 0450   72     100/  4/  5   N/A
S MID LAKE BUOY  0450   75 72  110/ 12/ 14 1009.4F   1/ 3
KENOSHA   LAKESH 0500   72     180/ 15/ 27 1009.5
$$

TC  - TEMPERATURE IN CELSIUS
VSB - VISIBILITY IN STATUTE MILES
WCI - WIND CHILL INDEX
HX  - HEAT INDEX





USA.gov is the U.S. government's official web portal to all federal, state and local government web resources and services.